******************************************************************************* JPL/HORIZONS ASAS (C/2004 R2) 2025-Dec-12 17:45:19 Rec #:90003305 (+COV) Soln.date: 2021-Apr-15_23:30:42 # obs: 66 (18 days) IAU76/J2000 helio. eclip. TWO-BODY elements (au, days, deg., period=Julian yrs) EPOCH= 2453263.5 ! 2004-Sep-15.0000000 (TDB) RMSW= n.a. EC= .9999999303088788 QR= .1128356575522295 TP= 2453286.3973713205 OM= 182.4635745173328 W= 5.353182778797772 IN= 63.1736941321234 A= 1619082.253199455 MA= 359.9999999890456 ADIST= 3238164.393563252 PER= 2060210380.2692 N= 0. ANGMOM= .008171835000000001 DAN= .11308 DDN= 51.7412 L= 184.8850094 B= 4.7756471 MOID= .51641297 TP= 2004-Oct-07.8973713205 Comet physical (GM= km^3/s^2; RAD= km): GM= n.a. RAD= n.a. M1= 10. M2= n.a. k1= 6. k2= n.a. PHCOF= n.a. COMET comments 1: soln ref.= JPL#13, data arc: 2004-09-09 to 2004-09-27 2: k1=6.0; TWO_BODY; ******************************************************************************* ******************************************************************************* Ephemeris / WWW_USER Fri Dec 12 17:45:19 2025 Pasadena, USA / Horizons ******************************************************************************* Target body name: ASAS (C/2004 R2) {source: JPL#13} Center body name: Solar System Barycenter (0) {source: DE441} Center-site name: BODY CENTER ******************************************************************************* Start time : A.D. 1800-Jan-01 00:00:00.0000 TDB Stop time : A.D. 2200-Jan-01 00:00:00.0000 TDB Step-size : 400 calendar years ******************************************************************************* Center geodetic : 0.0, 0.0, 0.0 {E-lon(deg),Lat(deg),Alt(km)} Center cylindric: 0.0, 0.0, 0.0 {E-lon(deg),Dxy(km),Dz(km)} Center radii : (undefined) Keplerian GM : 2.9630927493968080E-04 au^3/d^2 Small perturbers: Yes {source: SB441-N16} Output units : AU-D, deg, Julian Day Number (Tp) Calendar mode : Mixed Julian/Gregorian Output type : GEOMETRIC osculating elements Output format : 10 Reference frame : Ecliptic of J2000.0 ******************************************************************************* Initial IAU76/J2000 heliocentric ecliptic TWO-BODY elements (au, days, deg.): EPOCH= 2453263.5 ! 2004-Sep-15.0000000 (TDB) RMSW= n.a. EC= .9999999303088788 QR= .1128356575522295 TP= 2453286.3973713205 OM= 182.4635745173328 W= 5.353182778797772 IN= 63.1736941321234 Equivalent ICRF heliocentric cartesian coordinates (au, au/d): X= 4.979593140602520E-01 Y= 4.835991567060508E-01 Z=-3.768293928598651E-01 VX=-2.399892910095346E-02 VY=-1.069218220565213E-02 VZ= 7.683370440927522E-03 Comet physical (GM= km^3/s^2; RAD= km): GM= n.a. RAD= n.a. M1= 10. M2= n.a. k1= 6. k2= n.a. PHCOF= n.a. ******************************************************************************* JDTDB EC QR IN OM W Tp N MA TA A AD PR ******************************************************************************* $$SOE 2378496.500000000 = A.D. 1800-Jan-01 00:00:00.0000 TDB EC= 9.999444340120591E-01 QR= 1.123610481419133E-01 IN= 6.323563006051165E+01 OM= 1.824404927689588E+02 W = 5.384789308531848E+00 Tp= 2453286.499887751415 N = 1.084638817566702E-05 MA= 3.591887986295594E+02 TA= 1.826956875051521E+02 A = 2.022119147070181E+03 AD= 4.044125933092221E+03 PR= 3.319077228008771E+07 2524593.500000000 = A.D. 2200-Jan-01 00:00:00.0000 TDB EC= 9.999824306495008E-01 QR= 1.145958078171719E-01 IN= 6.317508499370474E+01 OM= 1.825058772531461E+02 W = 5.413665974903751E+00 Tp= 2453285.487826243509 N = 1.872301218632579E-06 MA= 1.335100780911954E-01 TA= 1.771955715399039E+02 A = 6.522484016920767E+03 AD= 1.304485343803372E+04 PR= 1.922767535572739E+08 $$EOE ******************************************************************************* ** WARNING ** The initial state available for this object was a Keplerian two-body orbital element set, not osculating elements. This means the orbit is probably very poorly determined. Predictions for times many months or years from the epoch may not be suitable for high-accuracy applications or expectations. Since the epoch is inside or within ~30 days of the relatively short data arc, the elements (such as they are) were numerically propagated with perturbations, just as if they were osculating elements. TIME Barycentric Dynamical Time ("TDB" or T_eph) output was requested. This continuous coordinate time is equivalent to the relativistic proper time of a clock at rest in a reference frame co-moving with the solar system barycenter but outside the system's gravity well. It is the independent variable in the solar system relativistic equations of motion. TDB runs at a uniform rate of one SI second per second and is independent of irregularities in Earth's rotation. CALENDAR SYSTEM Mixed calendar mode was active such that calendar dates after AD 1582-Oct-15 (if any) are in the modern Gregorian system. Dates prior to 1582-Oct-5 (if any) are in the Julian calendar system, which is automatically extended for dates prior to its adoption on 45-Jan-1 BC. The Julian calendar is useful for matching historical dates. The Gregorian calendar more accurately corresponds to the Earth's orbital motion and seasons. A "Gregorian-only" calendar mode is available if such physical events are the primary interest. REFERENCE FRAME AND COORDINATES Ecliptic at the standard reference epoch Reference epoch: J2000.0 X-Y plane: adopted Earth orbital plane at the reference epoch Note: IAU76 obliquity of 84381.448 arcseconds wrt ICRF X-Y plane X-axis : ICRF Z-axis : perpendicular to the X-Y plane in the directional (+ or -) sense of Earth's north pole at the reference epoch. Symbol meaning [1 au= 149597870.700 km, 1 day= 86400.0 s]: JDTDB Julian Day Number, Barycentric Dynamical Time EC Eccentricity, e QR Periapsis distance, q (au) IN Inclination w.r.t X-Y plane, i (degrees) OM Longitude of Ascending Node, OMEGA, (degrees) W Argument of Perifocus, w (degrees) Tp Time of periapsis (Julian Day Number) N Mean motion, n (degrees/day) MA Mean anomaly, M (degrees) TA True anomaly, nu (degrees) A Semi-major axis, a (au) AD Apoapsis distance (au) PR Sidereal orbit period (day) ABERRATIONS AND CORRECTIONS Geometric osculating elements have NO corrections or aberrations applied. Computations by ... Solar System Dynamics Group, Horizons On-Line Ephemeris System 4800 Oak Grove Drive, Jet Propulsion Laboratory Pasadena, CA 91109 USA General site: https://ssd.jpl.nasa.gov/ Mailing list: https://ssd.jpl.nasa.gov/email_list.html System news : https://ssd.jpl.nasa.gov/horizons/news.html User Guide : https://ssd.jpl.nasa.gov/horizons/manual.html Connect : browser https://ssd.jpl.nasa.gov/horizons/app.html#/x API https://ssd-api.jpl.nasa.gov/doc/horizons.html command-line telnet ssd.jpl.nasa.gov 6775 e-mail/batch https://ssd.jpl.nasa.gov/ftp/ssd/horizons_batch.txt scripts https://ssd.jpl.nasa.gov/ftp/ssd/SCRIPTS Author : Jon.D.Giorgini@jpl.nasa.gov ******************************************************************************* !$$SOF CENTER = '@0' COMMAND = '2004 R2' OUT_UNITS = 'AU-D' START_TIME = '1800-01-01' STEP_SIZE = '400 years' STOP_TIME = '2200-01-01' TABLE_TYPE = 'ELEMENTS'